DW6206 Weather Reports


time (UTC)temp
C
wind
direction
speed
KPH
gust
KPH
rain 1hr
cm
rain 24hr
cm
rain mn
cm
humidity
%
barometer
mb
20260502162719 19 112 1.6 1.6 0.03 0.18 0.18 81 1016.9
20260502161719 20 22 0.0 0.0 0.05 0.18 0.18 81 1016.9
20260502160713 18 337 0.0 4.8 0.13 0.18 0.18 82 1016.8
20260502151414 21 270 0.0 0.0 0.00 0.00 0.00 60 1017.5
20260502150407 21 247 0.0 0.0 0.00 0.00 0.00 62 1017.6
20260502130302 25 112 1.6 8.0 0.00 0.00 0.00 46 1018.7
20260502123312 23 247 6.4 17.7 0.00 0.00 0.00 48 1019.0
20260502122258 23 202 4.8 16.1 0.00 0.00 0.00 48 1019.1
20260502120123 23 202 4.8 19.3 0.00 0.00 0.00 48 1019.3
20260502115111 24 90 4.8 16.1 0.00 0.00 0.00 47 1019.5
20260502114100 23 270 4.8 17.7 0.00 0.00 0.00 48 1019.7
20260502111918 23 225 4.8 12.9 0.00 0.00 0.00 48 1019.7
20260502110907 23 292 4.8 16.1 0.00 0.00 0.00 48 1019.9
20260502105842 22 270 6.4 16.1 0.00 0.00 0.00 48 1020.0
20260502104858 22 315 11.3 16.1 0.00 0.00 0.00 49 1020.0
20260502103828 22 315 4.8 12.9 0.00 0.00 0.00 48 1020.2
20260502102758 22 247 4.8 12.9 0.00 0.00 0.00 50 1020.3
20260502100724 21 135 6.4 16.1 0.00 0.00 0.00 50 1020.6
20260502090545 21 270 4.8 16.1 0.00 0.00 0.00 47 1021.0
20260502064623 19 135 0.0 6.4 0.00 0.00 0.00 47 1021.0
20260502062502 17 270 4.8 6.4 0.00 0.00 0.00 51 1021.4
20260502061436 16 247 1.6 4.8 0.00 0.00 0.00 51 1021.3
20260502060435 16 247 1.6 4.8 0.00 0.00 0.00 52 1021.1
20260502055407 16 135 1.6 4.8 0.00 0.00 0.00 51 1021.0
20260502054336 16 135 1.6 1.6 0.00 0.00 0.00 51 1021.2
20260502053354 16 135 1.6 1.6 0.00 0.00 0.00 52 1021.2
20260502052403 15 247 0.0 4.8 0.00 0.00 0.00 53 1021.4
20260502051349 15 157 1.6 4.8 0.00 0.00 0.00 53 1021.1
20260502044023 14 67 0.0 1.6 0.00 0.00 0.00 55 1021.3
20260502043043 13 90 0.0 4.8 0.00 0.00 0.00 55 1021.4
20260502042017 13 135 1.6 4.8 0.00 0.00 0.00 55 1021.4
20260502041022 13 112 1.6 4.8 0.00 0.00 0.00 56 1021.4
20260502040014 13 90 1.6 4.8 0.00 0.00 0.00 57 1021.4
20260502034958 13 45 1.6 4.8 0.00 0.00 0.00 56 1021.5
20260502033939 13 135 1.6 1.6 0.00 0.00 0.00 56 1021.7
20260502032921 13 90 0.0 1.6 0.00 0.00 0.00 56 1021.8
20260502031917 13 45 1.6 4.8 0.00 0.00 0.00 55 1021.7
20260502030926 13 112 0.0 4.8 0.00 0.00 0.00 56 1022.0
20260502025941 13 90 1.6 4.8 0.00 0.00 0.00 55 1021.8
20260502024959 13 112 0.0 4.8 0.00 0.00 0.00 55 1021.9
20260502022749 14 67 1.6 4.8 0.00 0.00 0.00 54 1022.0
20260502021726 14 135 1.6 4.8 0.00 0.00 0.00 54 1022.1
20260502020721 14 45 0.0 6.4 0.00 0.00 0.00 54 1022.1
20260502015724 14 180 1.6 6.4 0.00 0.00 0.00 54 1022.2
20260502014725 14 67 1.6 6.4 0.00 0.00 0.00 54 1022.1
20260502013713 14 67 1.6 4.8 0.00 0.00 0.00 54 1022.4
20260502011457 14 45 1.6 4.8 0.00 0.00 0.00 54 1022.6
20260502005340 14 202 0.0 1.6 0.00 0.00 0.00 54 1022.6
20260502004400 14 202 0.0 1.6 0.00 0.00 0.00 54 1023.0
20260502003328 14 112 0.0 1.6 0.00 0.00 0.00 54 1023.2
20260502002306 14 202 0.0 1.6 0.00 0.00 0.00 55 1022.9
20260502001253 14 202 0.0 1.6 0.00 0.00 0.00 55 1023.1
20260502000256 14 90 1.6 1.6 0.00 0.00 0.00 56 1023.1
20260501234119 14 180 0.0 4.8 0.00 0.00 0.00 56 1023.4
20260501233122 14 112 0.0 4.8 0.00 0.00 0.00 55 1023.3
20260501232104 14 112 0.0 4.8 0.00 0.00 0.00 54 1023.3
20260501231053 14 247 0.0 1.6 0.00 0.00 0.00 55 1023.5
20260501230116 14 247 0.0 1.6 0.00 0.00 0.00 54 1023.5
20260501225126 15 247 1.6 1.6 0.00 0.00 0.00 53 1023.5
20260501224137 15 225 0.0 1.6 0.00 0.00 0.00 52 1023.4
20260501223136 15 180 0.0 1.6 0.00 0.00 0.00 52 1023.5
20260501222114 15 247 0.0 1.6 0.00 0.00 0.00 52 1023.6
20260501221059 15 247 0.0 4.8 0.00 0.00 0.00 52 1023.7
20260501214851 15 180 0.0 4.8 0.00 0.00 0.00 50 1023.6
20260501213902 16 202 1.6 4.8 0.00 0.00 0.00 49 1023.7
20260501212918 16 135 0.0 4.8 0.00 0.00 0.00 48 1023.7
20260501211851 16 90 0.0 1.6 0.00 0.00 0.00 47 1023.7
20260501210832 16 135 0.0 1.6 0.00 0.00 0.00 47 1023.7
20260501205837 16 90 0.0 0.0 0.00 0.00 0.00 46 1023.7
20260501204826 17 67 0.0 4.8 0.00 0.00 0.00 43 1023.9
20260501203808 17 67 0.0 4.8 0.00 0.00 0.00 42 1023.7
20260501200512 18 90 0.0 4.8 0.00 0.00 0.00 40 1023.8
20260501195454 18 67 1.6 4.8 0.00 0.00 0.00 40 1023.8
20260501194432 18 112 0.0 4.8 0.00 0.00 0.00 39 1023.8
20260501191134 20 112 0.0 1.6 0.00 0.00 0.00 36 1023.9
20260501190101 20 112 0.0 4.8 0.00 0.00 0.00 36 1023.8
20260501185117 20 90 0.0 4.8 0.00 0.00 0.00 35 1023.9
20260501184105 21 247 0.0 6.4 0.00 0.00 0.00 34 1023.7
20260501183117 21 112 1.6 8.0 0.00 0.00 0.00 34 1023.7
20260501182052 21 225 1.6 8.0 0.00 0.00 0.00 32 1023.9
20260501175928 22 90 1.6 8.0 0.00 0.00 0.00 32 1023.7
20260501174950 22 135 4.8 12.9 0.00 0.00 0.00 30 1023.7
20260501173953 22 112 4.8 12.9 0.00 0.00 0.00 30 1023.8
20260501172953 22 247 4.8 19.3 0.00 0.00 0.00 30 1023.7
20260501172010 23 90 4.8 19.3 0.00 0.00 0.00 30 1023.5
20260501170947 23 67 4.8 16.1 0.00 0.00 0.00 30 1023.8
20260501165921 23 67 1.6 9.7 0.00 0.00 0.00 29 1023.8
20260501164918 23 90 1.6 12.9 0.00 0.00 0.00 28 1023.6
20260501163940 23 112 4.8 17.7 0.00 0.00 0.00 28 1023.8